Simultaneous Nadir Overpasses (SNOs) Predictions

Prediction of SNOs between FY3D and AQUA Satellite Orbit:

Table of predicted SNOs for the next 14.0 days since TLE Epoch: 2/6/2021
Index Date (FY3D) Time (FY3D) Lat,Lon (FY3D) SZA (FY3D ) Date (AQUA) Time (AQUA) Lat,Lon (AQUA) SZA (AQUA ) Distance(km) Time Diff (sec)
1 02/06/2021 17:18:54 46.72, 133.25 140.36 02/06/2021 17:19:06 46.76, 132.89 140.49 28.16 12
2 02/06/2021 18:09:47 -46.41, -59.57 39.40 02/06/2021 18:08:42 -46.40, -59.62 39.22 4.26 65
3 02/09/2021 09:35:05 47.22,-110.62 139.22 02/09/2021 09:35:26 47.28,-111.03 139.34 32.41 21
4 02/09/2021 10:26:13 -46.05, 56.22 39.80 02/09/2021 10:25:16 -46.08, 56.14 39.67 7.30 57
5 02/12/2021 01:51:16 47.77, 5.54 137.99 02/12/2021 01:51:46 47.85, 5.07 138.10 36.68 30
6 02/12/2021 02:42:34 -46.03, 172.14 40.54 02/12/2021 02:41:46 -46.06, 172.01 40.39 10.58 48
7 02/14/2021 18:07:28 48.26, 121.68 136.76 02/14/2021 18:08:07 48.36, 121.15 136.86 40.80 39
8 02/14/2021 18:58:55 -46.00, -71.94 41.31 02/14/2021 18:58:16 -46.03, -72.12 41.15 14.25 39
9 02/17/2021 10:23:39 48.81,-122.16 135.44 02/17/2021 10:24:27 48.92,-122.75 135.54 44.87 48
10 02/17/2021 11:15:14 -46.04, 44.00 42.17 02/17/2021 11:14:44 -46.05, 43.77 41.99 18.27 30
11 02/17/2021 11:42:41 50.18, 17.36 62.39 02/17/2021 11:41:29 50.39, 18.52 62.70 85.16 72
12 02/20/2021 02:39:50 49.30, -6.01 134.13 02/20/2021 02:40:47 49.41, -6.66 134.24 48.77 57



Historial Predications of SNOs between FY3D and AQUA
